Meteo Giornale » Osservazioni meteo Italia » Palermo-Punta Raisi

ore: 15:20 - Osservazioni Meteo Palermo-Punta Raisi
Lat. 38° 11' N Lon. 13° 6' E Alt. 21 metri s.l.m.

poco_nuvoloso Europe/Rome

16 °C

Poco Nuvoloso

Temp. 24 Ore

14 °C

16 °C

Nord/NOvest

9.3 Km/h

Dew point 11 °C

Umidità 72 %

Visibilità  10 Km

Il sole sorge alle ore 06:43

Il sole tramonta alle ore 19:36

Data e Ora Cielo e Fenomeni T °C DP °C Um. % Pres. hPa Vis. km Vento km/h
Oggi h: 15:20 poco_nuvoloso Poco Nuvoloso 16 11 72 1017 10 N/NO 9.3
Oggi h: 14:50 poco_nuvoloso Poco Nuvoloso 16 11 72 1017 10 N/NO 9.3
Oggi h: 14:20 poco_nuvoloso Poco Nuvoloso 16 11 72 1017 10 N/NO 11.1
Oggi h: 13:50 poco_nuvoloso Poco Nuvoloso 16 11 72 1017 10 NO 9.3
Oggi h: 13:20 poco_nuvoloso Poco Nuvoloso 16 11 72 1018 10 NO 9.3
Oggi h: 12:50 poco_nuvoloso Poco Nuvoloso 16 11 72 1018 10 N/NO 9.3
Oggi h: 12:20 poco_nuvoloso Poco Nuvoloso 16 12 77 1018 10 NO 13
Oggi h: 11:50 poco_nuvoloso Poco Nuvoloso 16 12 77 1018 10 O/NO 11.1
Oggi h: 11:20 poco_nuvoloso Poco Nuvoloso 15 12 82 1018 10 O/SO 14.8
Oggi h: 10:50 poco_nuvoloso Poco Nuvoloso 15 12 82 1018 10 O/SO 14.8
Oggi h: 10:20 nuvoloso Nuvoloso 15 12 82 1018 10 O 13
Oggi h: 09:50 nuvoloso Nuvoloso 15 11 76 1018 10 SO 13
Oggi h: 09:20 molto_nuvoloso Molto Nuvoloso 14 11 82 1018 10 O/SO 9.3
Oggi h: 08:50 nuvoloso Nuvoloso 14 11 82 1017 10 S/SO 9.3
Ieri h: 18:50 sereno Sereno 14 7 62 1015 10 NE 13
Ieri h: 18:20 sereno Sereno 14 7 62 1015 10 N/NE 16.7
Ieri h: 17:50 sereno Sereno 14 6 58 1015 10 N/NE 16.7
Ieri h: 17:20 sereno Sereno 15 6 54 1015 10 N 14.8
Ieri h: 16:50 sereno Sereno 15 6 54 1015 10 N/NE 16.7
Ieri h: 16:20 sereno Sereno 15 6 54 1015 10 N/NE 16.7
Ieri h: 15:50 sereno Sereno 15 6 54 1015 10 N/NE 20.3